Location: Poughquag
(41.6090°N, 73.6820°W)
Time: 16:43:47
(UTC-04:00)

Gurwin Techsat 1B - Visible Passes

Search period start: 07 October 2024 00:00
Search period end: 17 October 2024 00:00
Orbit: 810 x 812 km, 98.9° (Epoch: 06 October)

Date Brightness Start Highest point End Pass type
(mag) Time Alt. Az. Time Alt. Az. Time Alt. Az.
07 Oct 10.7 03:49:10 10° NE 03:53:19 23° E 03:56:05 15° SE visible
07 Oct 8.9 05:28:19 10° N 05:33:23 46° WNW 05:37:15 17° SW visible
08 Oct 11.3 03:27:06 10° ENE 03:29:44 14° E 03:32:21 10° ESE visible
08 Oct 8.5 05:04:50 10° N 05:10:09 74° WNW 05:13:33 23° SSW visible
09 Oct 8.8 04:41:32 10° NNE 04:46:50 69° ESE 04:49:50 26° S visible
09 Oct 10.1 06:22:51 10° NNW 06:26:07 17° WNW 06:29:24 10° W visible
10 Oct 9.7 04:18:25 10° NNE 04:23:27 42° E 04:26:07 24° SSE visible
10 Oct 9.6 05:58:45 10° N 06:03:04 26° WNW 06:07:17 10° WSW visible
11 Oct 10.5 03:55:35 10° NE 03:59:58 26° E 04:02:24 19° SE visible
11 Oct 9.0 05:35:01 10° N 05:39:57 40° WNW 05:43:33 17° SW visible
12 Oct 11.2 03:33:16 10° NE 03:36:24 16° E 03:38:40 12° ESE visible
12 Oct 8.5 05:11:28 10° N 05:16:44 66° WNW 05:19:50 25° SSW visible
13 Oct 8.6 04:48:06 10° NNE 04:53:26 78° ESE 04:56:05 31° S visible
13 Oct 10.2 06:29:44 10° NNW 06:32:38 15° WNW 06:35:31 10° W visible
14 Oct 9.4 04:24:56 10° NNE 04:30:04 48° E 04:32:22 29° SSE visible
14 Oct 9.7 06:05:29 10° NNW 06:09:36 23° WNW 06:13:31 11° WSW visible
15 Oct 10.3 04:02:00 10° NE 04:06:36 29° E 04:08:37 23° SE visible
15 Oct 9.2 05:41:40 10° N 05:46:29 36° WNW 05:49:47 18° WSW visible
16 Oct 11.0 03:39:29 10° NE 03:43:03 18° E 03:44:52 15° ESE visible
16 Oct 8.6 05:18:04 10° N 05:23:17 58° WNW 05:26:02 27° SW visible
